Location: Recife
(8.0585°S, 34.8848°W)
Time: 12:51:55
(UTC-03:00)

Injun/Solrad 3 - Pass Details

Date: 15 April 2026
Orbit: 868 x 988 km, 66.8° (Epoch: 12 May)

Event Time Altitude Azimuth Distance (km) Brightness Sun altitude
Rises 07:58:55 0° 350° (N) 3,678 11.1 36.9°
Reaches altitude 10° 08:01:32 10° 355° (N) 2,732 10.6 37.5°
Maximum altitude 08:07:47 54° 71° (ENE) 1,170 10.5 39.0°
Drops below altitude 10° 08:13:57 10° 147° (SSE) 2,708 10.6 40.4°
Sets 08:16:32 0° 151° (SSE) 3,643 11.1 41.0°
